Location: USNO
(38.9242°N, 77.0663°W)
Time: 22:04:27
(UTC-04:00)

Envisat - Pass Details

Date: 16 October 2017
Orbit: 764 x 766 km, 98.2° (Epoch: 23 October)

Event Time Altitude Azimuth Distance (km) Brightness Sun altitude
Exits shadow 20:46:16 36° 6° (N) 1,197 4.0 -27.6°
Drops below altitude 10° 20:49:19 10° 354° (N) 2,309 5.7 -28.2°
Sets 20:51:38 0° 351° (N) 3,239 6.5 -28.6°
